Location: Cantaing
(50.1487°N, 3.1675°E)
Time: 10:54:48
(UTC+00:00)

Meteor 1-24 Rocket - Pass Details

Date: 14 January 2026
Orbit: 790 x 925 km, 81.3° (Epoch: 10 February)

Event Time Altitude Azimuth Distance (km) Brightness Sun altitude
Rises 06:27:19 0° 348° (NNW) 3,562 6.6 -11.4°
Reaches altitude 10° 06:29:47 10° 349° (N) 2,626 6.0 -11.1°
Maximum altitude 06:35:50 80° 77° (ENE) 945 4.1 -10.2°
Drops below altitude 10° 06:41:51 10° 165° (SSE) 2,613 6.8 -9.3°
Sets 06:44:19 0° 166° (SSE) 3,544 7.5 -8.9°
